AO-07 1 07530U 74089B 15183.16336988 -.00000042 00000-0 94276-5 0 9995 2 07530 101.5213 158.2534 0011483 274.7715 150.4292 12.53615141859136 FO-29 1 24278U 96046B 15183.16305708 -.00000015 00000-0 20180-4 0 9998 2 24278 098.5415 149.9291 0351105 032.1426 031.3412 13.53054210932052 SO-33 1 25509U 98061B 15183.16021311 .00000024 00000-0 -95295-5 0 9990 2 25509 031.4318 166.6197 0347894 204.6861 153.6745 14.30016063871563 RS-22 1 27939U 03042A 15183.50219767 .00000242 00000-0 52330-4 0 9999 2 27939 097.8424 344.7132 0012736 344.4124 015.6698 14.66082155628437 HO-68 1 36122U 09072B 15183.52055083 -.00000059 00000-0 -43517-4 0 9998 2 36122 100.1940 227.7804 0008139 084.0260 276.1788 13.16328077266474 AO-73 1 39444U 13066AE 15182.62783897 .00000803 00000-0 10881-3 0 9999 2 39444 097.7299 244.8557 0061357 088.9158 271.9084 14.80292523 85555 EO-79 1 40025U 14033R 15183.48935273 .00000679 00000-0 81614-4 0 9997 2 40025 097.9513 083.7765 0013967 129.8456 230.3991 14.87195789 56078 UO-11 1 14781U 84021B 15182.74843017 .00000276 00000-0 40936-4 0 9998 2 14781 097.8007 239.4718 0009270 032.5590 327.6194 14.82433197684181 AO-16 1 20439U 90005D 15182.46886803 .00000036 00000-0 29446-4 0 9990 2 20439 098.5407 118.4545 0011909 115.5342 000.3350 14.32552543328785 LO-19 1 20442U 90005G 15182.79938087 .00000017 00000-0 22043-4 0 9997 2 20442 098.5118 118.2931 0012968 103.6924 256.5705 14.32744573329039 AO-27 1 22825U 93061C 15182.49015678 .00000016 00000-0 23505-4 0 9991 2 22825 098.7096 132.6037 0007239 267.3541 205.6596 14.29888933134984 IO-26 1 22826U 93061D 15183.08128215 .00000020 00000-0 24970-4 0 9992 2 22826 098.7036 133.3605 0007767 255.6953 104.3367 14.30206721135210 GO-32 1 25397U 98043D 15182.51401400 -.00000006 00000-0 16204-4 0 9996 2 25397 098.5205 132.5073 0000412 359.1179 064.1983 14.23551122881835 NO-44 1 26931U 01043C 15183.32519410 -.00000016 00000-0 25863-4 0 9998 2 26931 067.0507 138.0443 0005844 269.7364 090.3068 14.30324317717963 SO-50 1 27607U 02058C 15183.36219646 .00000222 00000-0 52440-4 0 9997 2 27607 064.5541 152.4617 0081969 285.3836 073.8220 14.74768108673524 CO-55 1 27844U 03031E 15182.49855615 .00000097 00000-0 64115-4 0 9999 2 27844 098.6949 190.8208 0008425 258.4782 254.9636 14.21816601622471 CO-57 1 27848U 03031J 15182.86758196 .00000085 00000-0 59111-4 0 9997 2 27848 098.7046 191.0994 0008336 265.6257 216.2349 14.21461735622439 AO-51 1 28375U 04025K 15182.81580250 .00000041 00000-0 25430-4 0 9995 2 28375 098.2928 122.8400 0081483 285.7359 073.4854 14.41674518578591 CP3 1 31129U 07012N 15183.52846054 .00000280 00000-0 70603-4 0 9998 2 31129 097.9815 148.6258 0095000 266.0286 161.6758 14.55858735435350 CO-65 1 32785U 08021C 15183.53734444 .00000667 00000-0 80340-4 0 9996 2 32785 097.6480 226.5342 0013900 022.7592 112.1256 14.86923290388512 PRISM 1 33493U 09002B 15183.43784106 .00001736 00000-0 17119-3 0 9993 2 33493 098.2492 021.5864 0014878 281.6001 078.3560 14.93372356348850 SOHLA-1 1 33496U 09002E 15182.44968359 .00000112 00000-0 26407-4 0 9998 2 33496 098.2139 310.4531 0007560 114.4325 285.7271 14.71380847345270 TISAT-1 1 36799U 10035E 15183.26764124 .00001059 00000-0 11981-3 0 9991 2 36799 098.0174 283.8186 0013768 152.9341 260.1222 14.88586720269204 STUDSAT 1 36801U 10035G 15183.34898763 .00009915 00000-0 56897-3 0 9995 2 36801 098.0636 303.6338 0007054 098.4250 322.9035 15.12751172270265 ALMASAT-1 1 38078U 12006B 15182.87736989 .00016884 34244-5 28540-3 0 9990 2 38078 069.4567 203.3781 0479324 237.2676 118.1432 14.79564295177211 CUBEBUG-1 1 39153U 13018D 15183.23646460 .00000520 00000-0 76998-4 0 9993 2 39153 098.0174 267.5577 0016894 200.0144 160.0406 14.79270689117706 ESTCUBE-1 1 39161U 13021C 15183.43612453 .00000566 00000-0 99890-4 0 9999 2 39161 098.0704 266.2305 0008129 265.8560 094.1713 14.71201256115489 DUCHIFAT-1 1 40021U 14033M 15183.43841793 .00000992 00000-0 11384-3 0 9995 2 40021 097.9531 084.0853 0014670 130.0996 230.1509 14.88099428 56078 NANOSATCBR1 1 40024U 14033Q 15183.29832857 .00000872 00000-0 10180-3 0 9993 2 40024 097.9512 083.7207 0013857 129.7247 230.5193 14.87674690 56048 DTUSAT-2 1 40030U 14033W 15183.51853300 .00000738 00000-0 88909-4 0 9997 2 40030 097.9502 083.5352 0013539 123.2370 237.0145 14.86820115 56061 ANTELSAT 1 40034U 14033AA 15183.46494249 .00000748 00000-0 12153-3 0 9996 2 40034 097.9426 075.1745 0061394 071.0322 289.7481 14.72757003 55541 MET-2/21 1 22782U 93055A 15182.77253404 .00000012 00000-0 -24195-5 0 9992 2 22782 082.5483 232.0947 0020981 280.9040 217.0272 13.83771302102619 OKEAN-4 1 23317U 94066A 15183.56999579 .00000474 00000-0 50419-4 0 9996 2 23317 082.5382 070.9852 0018550 280.1252 132.7522 14.86720623119592 NOAA-14 1 23455U 94089A 15183.49488557 .00000004 00000-0 24813-4 0 9993 2 23455 098.7521 264.6325 0010146 042.2627 090.6825 14.14045864 57690 NOAA-15 1 25338U 98030A 15183.45675113 .00000093 00000-0 58228-4 0 9992 2 25338 098.7726 182.1027 0011638 120.9279 239.3046 14.25638346891010 RESURS 1 25394U 98043A 15183.46848381 -.00000044 00000-0 -65686-6 0 9994 2 25394 098.4661 138.0003 0000808 168.0391 330.8023 14.24458677882452 FENGYUN1 1 25730U 99025A 15182.48861272 .00001133 00000-0 62506-3 0 9997 2 25730 098.9430 147.3432 0021911 100.5466 021.7717 14.13432584831071 OKEAN-0 1 25860U 99039A 15183.02466471 .00000195 00000-0 35830-4 0 9997 2 25860 098.0952 151.0978 0000929 081.8983 320.2245 14.76072321858174 NOAA-16 1 26536U 00055A 15183.45973711 .00000008 00000-0 28462-4 0 9991 2 26536 098.9417 249.4237 0010470 183.7552 176.3542 14.13100497761817 NOAA-17 1 27453U 02032A 15183.45744557 .00000005 00000-0 19767-4 0 9996 2 27453 098.3406 168.6984 0012583 133.6539 226.5686 14.24889537676830 NOAA-18 1 28654U 05018A 15183.50767683 .00000068 00000-0 62533-4 0 9996 2 28654 099.1843 176.5240 0013199 278.8506 081.1170 14.12213241521237 NOAA-19 1 33591U 09005A 15183.47283371 .00000061 00000-0 57817-4 0 9997 2 33591 098.9906 133.3884 0014885 124.2057 236.0527 14.11951053329640 HUBBLE 1 20580U 90037B 15182.87644447 .00001002 00000-0 52940-4 0 9992 2 20580 028.4704 057.2575 0003057 038.4379 069.2192 15.07508452182021 ISS 1 25544U 98067A 15183.56564479 .00006121 00000-0 94949-4 0 9993 2 25544 051.6458 007.2280 0003264 118.0576 282.6751 15.55476294950433 CO-58 1 28895U 05043F 15182.76224014 .00000303 00000-0 67972-4 0 9998 2 28895 097.8212 009.7724 0015700 249.2437 110.7084 14.62816927515723 FALCON 1 30776U 07006E 15182.66684303 .00003419 00000-0 13738-3 0 9991 2 30776 035.4285 270.3560 0001187 079.6560 039.5138 15.24593784458515 MAST 1 31126U 07012K 15182.83437184 .00000157 00000-0 44198-4 0 9991 2 31126 097.9615 150.2026 0089488 249.9425 132.3074 14.56082897435620 CAPE1 1 31130U 07012P 15182.48117549 .00000266 00000-0 67962-4 0 9992 2 31130 097.9832 147.0914 0095727 271.3279 087.6955 14.55530422434962 COMPASS 1 32787U 08021E 15183.51108036 .00001072 00000-0 11433-3 0 9995 2 32787 097.6504 230.7108 0013166 009.8660 350.2814 14.90808925388791 AAUSAT2 1 32788U 08021F 15182.75654477 .00001358 00000-0 13968-3 0 9998 2 32788 097.6515 231.5176 0012560 009.5085 350.6370 14.91856975388771 DO-64 1 32789U 08021G 15182.79635900 .00003563 00000-0 29024-3 0 9993 2 32789 097.6740 242.6751 0010933 002.5830 063.5047 15.00097804389273 CO-66 1 32791U 08021J 15182.80977712 .00000874 00000-0 98845-4 0 9998 2 32791 097.6500 227.8337 0014223 018.0465 342.1254 14.88841690388491 RS-30 1 32953U 08025A 15183.36712888 .00000010 00000-0 -13620-7 0 9999 2 32953 082.5026 324.7979 0019407 049.9275 310.3505 12.43061582322494 METEOR-M 1 35865U 09049A 15183.57763421 .00000050 00000-0 41727-4 0 9992 2 35865 098.4996 223.3724 0003652 078.4861 076.5043 14.22035331300391 RS-38 1 35869U 09049E 15183.50728808 -.00000005 00000-0 16643-4 0 9999 2 35869 098.4916 222.9271 0005693 068.5807 291.5984 14.22300544300435 JUGNU 1 37839U 11058B 15182.22142939 .00000312 00000-0 24232-4 0 9997 2 37839 019.9608 117.4330 0019029 200.4272 313.9738 14.12474720192202 SRMSAT 1 37841U 11058D 15183.16683126 .00000305 00000-0 22424-4 0 9995 2 37841 019.9710 138.7093 0012057 136.4227 339.5921 14.10485231192062 RAX-2 1 37853U 11061D 15183.20307334 .00002720 00000-0 17162-3 0 9996 2 37853 101.7093 041.6250 0196085 031.8365 080.0548 14.96312234199359 AUBIESAT 1 37854U 11061E 15182.60432103 .00003439 00000-0 20872-3 0 9993 2 37854 101.7164 044.3225 0186816 028.6396 356.1078 14.98463685199376 HRBE 1 37855U 11061F 15183.55720212 .00003524 00000-0 21486-3 0 9997 2 37855 101.7154 044.3034 0194195 028.6070 332.5630 14.97297277199454 HORYU-2 1 38340U 12025D 15183.45394994 .00000613 00000-0 10056-3 0 9998 2 38340 098.3140 153.7763 0013173 051.9520 308.2874 14.74346917167781 RS-40 1 38735U 12041C 15183.41011999 .00000040 00000-0 21992-3 0 9996 2 38735 082.4762 050.4910 0016984 143.8335 216.3899 12.42568630132800 PROITERES 1 38756U 12047B 15183.38597643 .00000328 00000-0 55630-4 0 9992 2 38756 098.2210 282.9298 0010913 247.6123 112.3928 14.75845637151241 BEESAT-3 1 39134U 13015E 15183.49156303 .00003058 00000-0 18449-3 0 9994 2 39134 064.8727 008.5445 0030355 249.5263 110.2601 15.12365815121012 BEESAT-2 1 39136U 13015G 15182.96780103 .00002436 00000-0 15601-3 0 9994 2 39136 064.8731 012.7422 0030965 248.6045 111.1773 15.10703423120890 ZACUBE-1 1 39417U 13066B 15182.80411144 .00000654 00000-0 91011-4 0 9991 2 39417 097.7294 244.7720 0061992 089.1747 271.6567 14.79756815 86790 TRITON-1 1 39427U 13066M 15182.74154291 .00000587 00000-0 10331-3 0 9992 2 39427 097.7141 232.6359 0117162 120.3814 240.9035 14.66675679 86007 DELFIN3XT 1 39428U 13066N 15182.75887868 .00000981 00000-0 16950-3 0 9998 2 39428 097.7145 230.9326 0125708 125.2970 236.0068 14.65430976 85873 GOMX-1 1 39430U 13066Q 15183.10284479 .00000675 00000-0 13328-3 0 9996 2 39430 097.7076 225.1393 0154059 142.2443 218.9690 14.58085496 85554 MO-76 1 39436U 13066W 15182.66952037 .00009861 00000-0 65158-3 0 9998 2 39436 097.7459 258.9115 0022651 059.6311 300.7152 15.07396956 87677 LO-74 1 39440U 13066AA 15182.72408053 .00000636 00000-0 97542-4 0 9998 2 39440 097.7236 239.9081 0083608 100.8022 260.2612 14.74569071 86474 PUCPSAT-1 1 39442U 13066AC 15182.73942486 .00001017 00000-0 11375-3 0 9997 2 39442 097.7390 252.4268 0034549 076.1157 284.3899 14.88657207 86038 SPROUT 1 39770U 14029E 15183.01795373 .00000678 00000-0 88067-4 0 9999 2 39770 097.8724 279.6330 0010695 146.1916 213.9985 14.83846532 59830 POPSAT-HIP1 1 40028U 14033U 15183.39440613 .00000910 00000-0 10749-3 0 9997 2 40028 097.9534 083.7604 0015301 127.1982 233.0583 14.87062239 56042 EO-80 1 40032U 14033Y 15183.39338509 .00000677 00000-0 82217-4 0 9992 2 40032 097.9508 083.4228 0013465 123.7642 236.4858 14.86744259 56041 VELOX-1 1 40057U 14034E 15183.38834142 .00000963 00000-0 14788-3 0 9998 2 40057 098.2151 261.7393 0011312 182.2723 177.8425 14.75881838 54127 DAURIA DX 1 1 40071U 14037C 15183.47038941 .00000398 00000-0 59607-4 0 9992 2 40071 098.3557 255.5143 0008538 181.6218 178.4968 14.80417851 53052 UKUBE-1 1 40074U 14037F 15183.42051714 .00000951 00000-0 12643-3 0 9996 2 40074 098.3579 256.2905 0004692 179.8003 180.3198 14.82242675 53094 HODOYOSHI-1 1 40299U 14070B 15183.43395347 .00001995 00000-0 97147-4 0 9998 2 40299 097.4555 264.7582 0014823 081.8704 046.9114 15.19448171 36130 CHUBUSAT-1 1 40300U 14070C 15183.45518696 .00002201 00000-0 11165-3 0 9993 2 40300 097.4536 264.0232 0024004 082.9154 336.2753 15.17749762 36097 QSAT-EOS 1 40301U 14070D 15183.43619361 .00004179 00000-0 21046-3 0 9998 2 40301 097.4496 263.3414 0033685 083.1284 337.2129 15.17234746 36054 TSUBAME 1 40302U 14070E 15183.41995353 .00002842 00000-0 16050-3 0 9999 2 40302 097.4471 262.1119 0044833 086.0552 044.3462 15.13074375 35976 FIREBIRD FU3 1 40377U 15003B 15183.37528999 .00003775 00000-0 19108-3 0 9994 2 40377 099.1172 219.6583 0157280 203.4082 155.9928 15.07697773 22845 FIREBIRD FU4 1 40378U 15003C 15183.37296864 .00003576 00000-0 18109-3 0 9997 2 40378 099.1173 219.6621 0157465 203.3691 156.0322 15.07715533 22845 GRIFEX 1 40379U 15003D 15183.48334132 .00001877 00000-0 99481-4 0 9996 2 40379 099.1182 219.6950 0158476 204.3076 155.0615 15.06989148 22851 LAMBDA-SAT 1 40458U 98067GB 15136.30676273 .20783109 12527-4 14817-2 0 9995 2 40458 051.6075 233.7697 0010355 318.5347 043.1720 16.39926603 21161 NO-84 1 40654U 15183.42057984 .00009508 00000-0 25480-3 0 00542 2 40654 054.9956 154.5104 0243123 287.8923 069.5719 15.14066938006481 NO-83 1 40655U 15183.42656151 .00005657 00000-0 15789-3 0 00568 2 40655 055.0054 154.6135 0244464 287.6505 069.7955 15.13642735006489 /EX